APRIZESAT 1

Satellite information

Favourite Embed

Satellite Type and Status

PAYLOADIN ORBIT

Key statistics

Satellite APRIZESAT 1 at a glance.

Uptime

7837

Days in orbit

Revolutions

≈ 14.5

Per day

Orbit

SSO

Sun Synchronous Orbit

Inclination

98.6

Latest

Satellite identification and parameters

Extended collection of information and parameters for APRIZESAT 1.

Object identification

Identified? True

Debris? False

Object name: APRIZESAT 1

International designator: 2004-025G

Object number (NORAD): 28372

Object ID (CCSDS): 28372

Country: UNITED STATES OF AMERICA (US)

Current information (Y/N): Y

RCS size: SMALL

Orbital parameters

Period: 99.199 minutes

Inclination: 98.6315 deg

SMA: 7098.461 km

Apoapsis: 752.141 km

Periapsis: 688.511 km

RAAN: 346.8715 deg

Eccentricy: 0.00448193

Argument of periapsis: 5.1146 deg

Mean anomaly: 355.0497 deg

Mean motion: 14.51631701 rev/day

Mean motion (dot): 0.00000606 rev/day2

B* drag term: 0.00016142225 1/REarth

Two-line elements (TLE)

Creation date: Dec. 12, 2025, 10:14 a.m.

Reference frame: TEME

Reference center: EARTH

Epoch: Dec. 12, 2025, 5:37 a.m. UTC

TLE line 0: 0 APRIZESAT 1

TLE line 1: 1 28372U 04025G 25346.23456463 .00000606 00000-0 16142-3 0 9995

TLE line 2: 2 28372 98.6315 346.8715 0044819 5.1146 355.0497 14.51631701134788

Live tracking on map

Real-time ground track for satellite APRIZESAT 1.

In-orbit conjunctions

There are no conjunctions computed for APRIZESAT 1, at the moment. Check back to stay up to date, as we update our databases every day.

Go to all conjunctions

Associated space launch

AprizeSat, is a constellation of small Low-Earth-Orbit satellites (64 satellites planned) to achieve a global communication system of data transmission and fixed and mobile asset tracking and monitoring (GMPCS).

APRIZESAT 1 was lifted into orbit during the mission ‘Dnepr | Aprizesat-2’, on board a Dnepr space rocket.

The launch took place on June 29, 2004, 6:30 a.m. from 109/95.

For more information about the launch, click the button.

Launch to space Dnepr | Aprizesat-2
Dnepr | Aprizesat-2

Agency: N/A

Status: Launch Successful

Launch date: June 29, 2004, 6:30 a.m. UTC

Rocket: Dnepr

Launch pad: 109/95

Location: Baikonur Cosmodrome, Republic of Kazakhstan

...

Latest news about this satellite

There are no fresh news available about this satellite. Check back as we update our databases every day.


Newsletter sign-up

Weekly statistics, charts and insights to help you stay on top of the space industry.